Location: Enval
(45.8988°N, 3.0497°E)
Time: 05:14:47
(UTC+00:00)

Daily predictions for brighter satellites

Satellite Brightness Start Highest point End
(mag) Time Altitude Azimuth Time Altitude Azimuth Time Altitude Azimuth
Cosmos 1980 Rocket 4.5 00:00:02 10° W 00:03:58 19° NW 00:07:57 10° N
Cosmos 2322 Rocket 2.3 00:05:15 47° WSW 00:06:46 66° WNW 00:12:23 10° NNE
Okean 1-7 3.8 00:06:47 42° W 00:07:02 42° WNW 00:11:13 10° N
Cosmos 923 Rocket 4.1 00:04:32 10° NNW 00:09:45 56° WSW 00:10:11 55° SW
Cosmos 1818 4.0 00:04:45 10° NNW 00:10:10 59° NE 00:12:49 29° ESE
USA 267 3.8 00:10:32 37° SW 00:10:36 37° SW 00:16:35 10° WNW
ALOS 2 4.1 00:11:03 24° W 00:11:03 24° W 00:14:22 10° NW
Cosmos 1242 Rocket 3.9 00:07:51 10° N 00:11:04 32° ENE 00:11:04 32° ENE
ATLAS CENTAUR R/B 2.9 00:08:41 10° NNW 00:13:19 40° NE 00:16:20 19° ESE
Cosmos 1782 Rocket 4.1 00:14:20 10° NNW 00:18:18 47° W 00:18:18 47° W
Cosmos 372 Rocket 3.9 00:19:41 61° SSE 00:20:18 68° ESE 00:25:25 10° NNE
ERS-2 4.3 00:17:54 10° NNW 00:20:22 17° WNW 00:20:41 17° WNW
Okean 2 Rocket 3.6 00:16:29 10° N 00:20:54 51° ENE 00:21:36 46° ESE
ADEOS Rocket 3.3 00:20:35 39° WSW 00:21:19 41° W 00:26:43 10° NNW
Cosmos 1953 4.2 00:22:50 10° NNE 00:26:06 23° ENE 00:27:20 20° E
Cosmos 1844 Rocket 2.7 00:21:08 10° NNW 00:26:37 59° WSW 00:27:18 55° SW
Cosmos 1844 3.7 00:22:01 10° NNW 00:27:48 69° WSW 00:28:57 55° S
Meteor 1-21 4.3 00:26:51 52° S 00:28:18 77° E 00:34:08 10° NNE
Cosmos 2112 Rocket 4.1 00:25:22 10° NNW 00:30:37 58° WSW 00:31:08 55° SW
Cosmos 1937 Rocket 3.5 00:29:41 56° SW 00:30:43 72° WNW 00:36:00 10° NNE
Cosmos 1758 3.3 00:29:33 10° N 00:33:27 74° ENE 00:33:27 74° ENE
Cosmos 1680 Rocket 3.9 00:28:54 10° NNW 00:33:58 46° WSW 00:34:17 46° WSW
Sich 1 Rocket 3.4 00:31:09 10° N 00:35:35 88° WSW 00:35:48 80° S
Cosmos 1674 2.9 00:36:19 60° ENE 00:36:19 60° ENE 00:39:42 10° NNE
Resurs 1-4 Rocket 3.5 00:33:02 10° NE 00:37:30 27° E 00:39:19 22° SE
Cosmos 1470 3.6 00:34:06 10° NNW 00:37:14 41° WNW 00:37:14 41° WNW
Okean 2 3.3 00:39:07 81° E 00:39:07 81° E 00:43:11 10° N
SL-08 ROCKET BODY 4.4 00:33:44 10° NNW 00:39:34 62° W 00:40:56 48° SW
CZ-4C R/B 3.5 00:33:12 10° NNW 00:40:12 57° NE 00:48:26 10° ESE
Cosmos 2219 Rocket 2.2 00:39:12 52° SSE 00:40:25 66° ESE 00:45:58 10° NNE
Cosmos 1707 3.0 00:40:54 60° WNW 00:40:54 60° WNW 00:44:31 10° N
SL-16 R/B 3.7 00:38:30 18° W 00:41:38 30° NW 00:46:35 10° N
NOSS 3-1 (C) 4.1 00:37:40 10° NW 00:45:06 81° NE 00:53:55 10° SE
COSMOS 2428 3.1 00:44:03 42° SSE 00:45:26 52° ESE 00:50:57 10° NE
Cosmos 1437 Rocket 3.9 00:42:21 10° N 00:45:50 34° ENE 00:46:36 31° E
Cosmos 1726 4.5 00:43:59 10° NW 00:45:19 14° WNW 00:45:19 14° WNW
Cosmos 1300 Rocket 4.0 00:42:10 10° NNW 00:46:12 45° W 00:46:12 45° W
ATLAS 3B R/B 3.4 00:40:52 10° NW 00:47:32 38° WSW 00:48:50 35° SW
ASTEX 1 3.8 00:43:30 10° N 00:48:13 50° WNW 00:49:02 45° WSW
MOZ.5/SAFIR/RUBIN 5/SL-8 3.8 00:53:59 51° SSE 00:55:10 79° ENE 00:59:55 10° N
Cosmos 1626 2.1 00:55:39 79° N 00:55:39 79° N 00:59:07 10° N
S3M 4.1 00:54:26 38° SSE 00:57:00 72° E 01:03:22 10° NNE
Cosmos 2237 Rocket 3.7 00:57:20 20° SE 00:59:33 26° ESE 01:04:08 10° NE
Cosmos 2333 4.4 01:01:59 40° WSW 01:03:52 62° WNW 01:09:28 10° NNE
KORONAS-FOTON 4.1 01:03:59 53° WNW 01:03:59 53° WNW 01:07:37 10° N
Cosmos 1553 Rocket 4.0 01:02:58 42° SW 01:05:01 65° W 01:11:08 10° N
ADEOS II 3.7 01:01:36 10° NE 01:05:58 26° E 01:08:46 17° SE
Cosmos 1300 3.8 01:07:04 10° N 01:10:39 40° ENE 01:11:51 30° ESE
Cosmos 405 Rocket 2.4 01:10:48 83° SE 01:10:53 85° ESE 01:14:38 10° NNE
Cosmos 2221 Rocket 3.9 01:10:51 48° WSW 01:11:28 52° WNW 01:15:48 10° N
Cosmos 1386 Rocket 4.3 01:05:43 10° N 01:11:44 78° W 01:14:07 39° S
Okean 1 Rocket 3.0 01:11:16 10° N 01:15:41 85° E 01:16:47 51° SSE
Cosmos 2360 Rocket 3.4 01:13:37 21° W 01:16:26 33° NW 01:21:31 10° NNE
IDEFIX/ARIANE 42P 4.2 01:13:14 10° NE 01:17:41 27° E 01:20:54 16° SE
Cosmos 1238 Rocket 3.8 01:15:29 10° NNW 01:17:10 25° NW 01:17:10 25° NW
ATLAS 5 CENTAUR R/B 2.8 01:07:06 10° NW 01:18:19 66° WSW 01:19:49 40° S
Cosmos 1461 3.2 01:16:14 10° NNW 01:20:21 65° NE 01:23:29 18° SE
Cosmos 1908 3.7 01:17:07 10° NNW 01:20:34 45° W 01:20:34 45° W
Meteor 2-10 Rocket 4.3 01:17:24 10° N 01:23:05 55° ENE 01:27:14 17° SSE
Cosmos 2278 Rocket 2.5 01:22:34 10° NNW 01:28:15 66° ENE 01:33:52 10° SE
CZ-2D R/B 2.2 01:22:49 10° NNE 01:28:15 72° ESE 01:30:34 35° S
Cosmos 1867 3.5 01:30:59 40° SSW 01:33:03 82° ESE 01:38:34 10° NE
SME Rocket 3.0 01:32:57 52° SW 01:33:28 57° WSW 01:37:44 10° NNW
Gblst 52 Del rocket 4.4 01:30:00 21° WSW 01:34:01 70° NNW 01:39:33 10° ENE
Cosmos 1048 Rocket 3.9 01:29:09 10° NNW 01:34:19 70° WSW 01:36:29 35° S
Cosmos 2333 Rocket 3.1 01:33:18 24° WSW 01:36:03 39° NW 01:41:22 10° NNE
Cosmos 1125 Rocket 3.5 01:37:42 37° S 01:39:47 80° ESE 01:45:00 10° NNE
Cosmos 1745 Rocket 4.3 01:35:03 10° NNW 01:41:03 49° W 01:43:37 32° SW
SL-16 R/B 2.5 01:37:47 20° SSE 01:42:13 88° WSW 01:48:30 10° NNW
YAOGAN 11 4.2 01:39:55 26° SSE 01:42:22 74° ENE 01:46:51 10° N
SL-16 R/B 4.2 01:38:47 10° SE 01:42:37 19° E 01:46:28 10° ENE
Cosmos 2322 4.4 01:40:26 27° WSW 01:43:11 46° WNW 01:48:43 10° NNE
Thor Agena Rocket 4.2 01:38:53 10° N 01:43:52 45° WNW 01:46:03 29° WSW
Cosmos 1674 Rocket 4.4 01:43:30 31° WSW 01:44:28 34° WNW 01:48:28 10° N
Cosmos 1943 Rocket 4.2 01:40:00 10° N 01:44:55 29° NE 01:49:49 10° ESE
EO 1 Del DPAF 4.1 01:44:00 10° NNE 01:47:19 37° E 01:48:38 27° SE
Cosmos 2298 Rocket 4.0 01:45:28 35° SSW 01:47:46 86° WNW 01:53:06 10° NNE
USA 290 3.0 01:48:51 38° WNW 01:49:07 39° WNW 01:52:12 10° N
Cosmos 1980 3.9 01:46:55 30° S 01:49:45 67° ESE 01:55:23 10° NNE
Cosmos 2322 Rocket 4.5 01:48:53 10° WNW 01:51:57 15° NW 01:55:02 10° N
ATLAS CENTAUR R/B 2.3 01:47:43 10° NW 01:52:03 33° WSW 01:52:17 33° WSW
Cosmos 494 Rocket 4.2 01:52:07 10° NNW 01:57:02 48° WSW 01:59:08 30° SSW
AQUA 3.8 01:52:22 10° NNE 01:57:10 85° ESE 01:59:34 30° S
SL-14 R/B 3.9 01:56:23 35° WSW 01:57:16 40° WNW 02:00:58 10° N
USA 229 DEB 3.9 01:50:38 10° NW 01:58:02 83° SW 02:05:55 10° SSE
USA 229 3.9 01:50:44 10° NW 01:58:08 84° SW 02:06:00 10° SSE
OE (NEXTSAT) 4.0 01:57:23 38° W 01:58:32 82° SSW 02:01:52 10° ESE
Cosmos 1455 Rocket 3.0 01:55:44 10° N 02:00:14 87° ENE 02:03:00 23° S
Cosmos 1953 3.3 01:58:56 10° NNW 02:02:25 29° W 02:02:56 28° WSW
GP-B 3.9 01:59:20 10° NNW 02:03:24 36° W 02:04:47 29° WSW
NOSS 2-2 (C) 4.3 02:00:10 10° NW 02:05:19 83° SW 02:12:38 10° SSE
Helios 1A 3.0 02:02:52 18° SSE 02:05:55 81° ENE 02:10:09 10° NNW
Cosmos 371 Rocket 3.4 02:04:37 30° SW 02:06:56 67° WNW 02:11:48 10° NNE
MSX 4.3 02:01:29 10° NNE 02:07:10 56° E 02:11:47 16° S
UNK 3.8 02:07:23 27° SSW 02:09:40 57° W 02:14:12 10° NNW
NPP 3.8 02:04:43 10° N 02:10:02 62° WNW 02:13:05 25° SW
Meteor 1-28 Rocket 3.1 02:10:52 25° S 02:12:56 78° WSW 02:16:42 10° NNW
Cosmos 1975 Rocket 3.0 02:11:29 29° SSW 02:13:38 71° W 02:18:05 10° N
CZ-4 R/B 4.4 02:09:17 10° N 02:13:41 42° WNW 02:15:54 25° WSW
USA 306 3.6 02:13:37 26° S 02:15:17 39° SE 02:19:12 10° ENE
USA 307 3.9 02:13:44 24° S 02:15:25 34° SE 02:19:14 10° ENE
Resurs 1-4 Rocket 2.7 02:12:30 10° N 02:17:27 43° WNW 02:20:23 23° SW
Cosmos 1437 Rocket 4.4 02:19:14 10° NW 02:21:44 17° W 02:21:54 17° W
Cosmos 2315 Rocket 4.5 02:18:05 23° SW 02:21:53 48° WNW 02:28:03 10° N
SAR-Lupe-2 4.2 02:20:19 10° N 02:23:44 42° WNW 02:25:09 27° WSW
NOSS 3-1 (A) 4.3 02:17:15 10° NW 02:24:37 52° WSW 02:33:07 10° SSE
Cosmos 2219 Rocket 3.8 02:20:54 12° W 02:24:52 24° NW 02:29:20 10° N
Helios 1B rocket 4.1 02:21:41 10° NE 02:25:16 29° E 02:28:49 10° SSE
Cosmos 2074 Rocket 4.0 02:19:10 10° N 02:25:30 87° E 02:31:48 10° S
NOSS 0 Rocket 4.3 02:22:49 21° SW 02:26:59 58° WNW 02:33:10 10° NNE
MOS 1 Rocket 3.5 02:26:10 23° SSW 02:28:26 43° W 02:32:32 10° NNW
CZ-4C R/B 3.4 02:21:51 10° NW 02:28:52 44° WSW 02:36:51 10° S
COSMOS 2428 4.0 02:26:02 14° WSW 02:29:57 29° NW 02:34:54 10° N
SeaSat 1 4.4 02:27:01 10° NE 02:30:53 23° ESE 02:34:44 10° SSE
Cosmos 2184 Rocket 4.0 02:27:03 10° N 02:33:23 86° W 02:39:36 10° S
Cosmos 304 Rocket 4.0 02:30:28 22° SW 02:33:27 60° WNW 02:38:15 10° NNE
CZ-2C R/B 4.4 02:30:05 10° NE 02:34:26 27° E 02:38:41 10° SSE
Cosmos 1269 Rocket 4.0 02:32:16 10° NNW 02:37:35 88° WSW 02:42:52 10° SSE
Cosmos 1455 2.0 02:38:16 10° N 02:42:00 87° W 02:45:42 10° S
Cosmos 2237 Rocket 2.6 02:39:10 18° SW 02:43:14 54° WNW 02:48:51 10° NNE
Cosmos 1025 Rocket 3.6 02:41:57 20° SW 02:44:35 41° WNW 02:48:43 10° N
USA 308 3.1 02:42:41 20° SSW 02:45:24 57° SE 02:49:32 10° ENE
BREEZE-M DEB (TANK) 4.1 02:34:13 10° W 02:45:28 68° NNW 02:48:56 10° ENE
Cosmos 1544 Rocket 3.6 02:41:16 10° NNW 02:45:40 60° W 02:49:52 11° S
ADEOS II 2.6 02:40:50 10° N 02:45:50 46° WNW 02:49:41 16° SW
Cosmos 2084 Rocket 4.1 02:43:24 15° S 02:46:12 41° ESE 02:49:47 10° NE
Cosmos 1703 4.4 02:43:10 10° SSE 02:46:53 42° E 02:50:37 10° NNE
Lacrosse 5 3.0 02:48:06 12° S 02:52:20 35° SE 02:56:57 10° ENE
Cosmos 2297 4.1 02:48:14 10° NNW 02:53:59 70° ENE 02:59:42 10° SE
IDEFIX/ARIANE 42P 3.1 02:52:25 10° N 02:57:24 44° WNW 03:01:43 14° SW
CZ-2D R/B 3.9 03:03:59 10° NNW 03:07:42 19° WNW 03:11:24 10° WSW
Cosmos 2278 Rocket 3.5 03:07:43 10° NW 03:11:46 20° W 03:15:48 10° SW
USA 305 2.9 03:09:06 12° WSW 03:12:54 80° NNW 03:17:06 10° NE
ERBS 2.0 03:14:11 13° SW 03:16:50 87° SE 03:19:55 10° NE
Nadezhda 1 Rocket 4.2 03:16:06 10° SSW 03:22:23 59° WNW 03:28:39 10° N
FENGYUN 3A 3.7 03:19:41 10° NNE 03:25:06 86° ESE 03:30:29 10° SSW
Cosmos 2341 Rocket 4.2 03:19:34 10° N 03:26:00 84° E 03:32:24 10° S
SL-16 R/B 2.3 03:20:28 10° SW 03:26:07 70° WNW 03:31:48 10° NNE
SL-16 R/B 4.1 03:23:16 10° WSW 03:26:40 15° W 03:30:07 10° NW
Cosmos 1943 Rocket 2.4 03:23:26 10° NW 03:28:57 52° WSW 03:34:24 10° S
COSMOS 2455 3.2 03:24:46 10° SSW 03:30:43 65° ESE 03:36:41 10° NE
Cosmos 2369 Rocket 2.7 03:25:35 10° NNW 03:31:11 68° ENE 03:36:44 10° SE
Meteor 2-1 Rocket 4.4 03:25:53 10° N 03:31:46 84° E 03:37:29 10° SSE
ARIANE 5 R/B 2.7 03:34:05 10° NNE 03:39:14 81° ESE 03:44:16 10° SSW
